Location: Caltech
(34.1382°N, 118.1253°W)
Time: 14:59:08
(UTC-08:00)

Daily predictions for brighter satellites

Satellite Brightness Start Highest point End
(mag) Time Altitude Azimuth Time Altitude Azimuth Time Altitude Azimuth
Cosmos 1666 Rocket 4.5 17:35:52 10° SSE 17:39:33 28° E 17:43:15 10° NNE
BREEZE-M DEB (TANK) 4.0 17:38:34 10° NW 17:42:45 60° SW 17:50:09 10° SE
Cosmos 1538 Rocket 4.2 17:39:04 10° S 17:44:10 53° ESE 17:49:22 10° NNE
Thor Agena Rocket 4.0 17:39:13 10° N 17:44:24 67° WNW 17:49:29 10° SSW
SPOT 3 Rocket 3.8 17:39:20 10° S 17:44:28 79° WSW 17:49:39 10° NNW
SL-16 R/B 2.2 17:38:59 10° SSW 17:44:36 74° ESE 17:50:15 10° NNE
SL-14 R/B 3.9 17:40:50 10° SSW 17:44:42 60° W 17:48:38 10° N
Cosmos 1484 Rocket 2.9 17:42:44 10° SSE 17:46:35 58° ENE 17:50:31 10° N
Meteor 1-27 4.3 17:42:24 10° N 17:48:13 69° E 17:54:01 10° SSE
Cosmos 1340 Rocket 2.7 17:44:58 10° S 17:48:54 87° ESE 17:52:51 10° N
Meteor 2-10 4.0 17:44:30 10° N 17:49:39 69° E 17:54:57 10° SSE
Resurs 01 Rocket 3.5 17:50:38 10° ENE 17:51:01 10° ENE 17:51:24 10° ENE
Cosmos 304 Rocket 4.0 17:48:06 10° SSW 17:52:54 77° WNW 17:57:43 10° NNE
Meteor 1-28 Rocket 3.3 17:53:40 10° NNE 17:57:19 54° E 18:00:58 10° S
Tiangong 1 1.8 17:55:23 10° SW 17:58:09 35° SE 18:00:16 15° E
Lacrosse 4 Rocket 2.9 17:58:08 10° NNE 18:00:34 15° NE 18:01:45 14° ENE
Cosmos 2297 3.8 17:55:56 10° NNW 18:01:35 59° ENE 18:07:13 10° SSE
Cosmos 1151 Rocket 4.3 17:58:17 10° NNW 18:02:23 45° W 18:06:29 10° SSW
Cosmos 1869 4.5 18:04:15 10° NNE 18:07:27 22° ENE 18:10:36 10° SE
METEOR-M 4.4 18:05:58 10° SE 18:10:59 43° ENE 18:16:02 10° N
Cosmos 2058 4.4 18:08:24 10° SSW 18:12:12 38° W 18:16:03 10° N
Cosmos 2279 Rocket 4.2 18:09:06 10° N 18:15:19 75° W 18:21:31 10° S
Cosmos 1805 Rocket 4.1 18:13:11 10° SSW 18:17:35 64° W 18:22:02 10° N
NOSS 3-1 (C) 4.3 18:13:23 10° SSE 18:17:54 25° ESE 18:20:20 19° ENE
Cosmos 773 Rocket 3.9 18:13:23 10° S 18:18:30 75° ESE 18:23:43 10° NNE
NOAA 12 4.1 18:14:08 10° SSE 18:19:14 56° ENE 18:24:23 10° N
Cosmos 1626 2.4 18:18:06 10° SSW 18:21:50 68° W 18:25:33 10° N
Cosmos 1943 4.3 18:18:27 10° SSE 18:22:42 22° E 18:23:49 21° E
Cosmos 2242 Rocket 4.0 18:20:26 10° N 18:24:37 40° E 18:28:48 10° SSE
Cosmos 1900 4.3 18:23:55 10° NNW 18:28:54 89° WSW 18:33:56 10° SSE
Sich 1 3.3 18:25:54 10° SSW 18:30:20 74° W 18:34:46 10° N
Nadezhda 4 Rocket 4.0 18:24:11 10° S 18:30:26 90° W 18:36:47 10° N
USA 215 3.9 18:28:14 21° E 18:31:45 35° NE 18:37:34 10° NNW
Cosmos 1356 Rocket 4.2 18:28:17 10° SSW 18:32:10 51° W 18:36:04 10° N
Coronas F rocket 1.3 18:30:56 10° SSW 18:33:18 65° W 18:34:09 33° NNW
Cosmos 2026 Rocket 4.4 18:28:43 10° SSE 18:34:18 36° E 18:39:50 10° NNE
Lacrosse 5 rocket 3.0 18:31:08 10° WNW 18:34:38 33° SW 18:38:19 10° S
Cosmos 2112 Rocket 4.3 18:30:04 10° S 18:34:57 43° ESE 18:37:38 24° NE
Centaur AC-72 4.4 18:33:41 10° SW 18:38:56 30° SSE 18:47:32 13° ESE
ALOS 2.6 18:34:46 10° SE 18:39:06 39° ENE 18:43:26 10° N
Aureole 1 Rocket 4.0 18:35:21 10° SSW 18:40:30 76° WNW 18:47:23 10° NNE
Cosmos 1633 Rocket 3.5 18:36:31 10° SSW 18:40:52 63° W 18:45:14 10° N
BREEZE M DEB (TANK) 2.9 18:41:24 10° NW 18:42:29 24° NNW 18:42:29 24° NNW
Delta 2 Rocket 3.6 18:43:42 10° SW 18:46:47 36° SSE 18:46:48 36° SSE
Cosmos 1455 2.7 18:44:30 10° NNW 18:48:15 59° W 18:52:01 10° S
Cosmos 1603 3.6 18:43:48 10° SSW 18:49:25 87° WNW 18:54:02 16° NNE
Cosmos 292 Rocket 3.6 18:44:46 10° SSW 18:49:31 89° E 18:52:44 21° NNE
FengYun 1-2 T 4.2 18:47:00 10° SSE 18:52:26 59° ENE 18:57:51 10° N
Cosmos 1092 Rocket 4.1 18:46:36 10° S 18:52:56 83° W 18:59:19 10° N
Chunghua 1 4.5 18:49:08 10° WSW 18:53:05 87° SSE 18:53:30 70° E
SJ-6B 3.3 18:53:59 10° S 18:58:01 64° W 19:02:07 10° NNW
Spot 2 Rocket 3.3 19:02:24 10° SSE 19:07:25 72° ENE 19:12:27 10° N
Milstar 3 4.5 19:05:36 10° WSW 19:10:55 25° SSW 19:16:55 10° SSE
Iridium 4 Rocket 3.9 19:06:35 10° SSW 19:11:00 50° W 19:15:09 10° N
Cosmos 2195 Rocket 4.4 19:09:57 10° S 19:16:02 84° W 19:22:13 10° N
Centaur AC-119 3.7 19:16:26 10° SW 19:18:32 32° S 19:18:32 32° S
Resurs 01 Rocket 2.0 19:22:30 10° S 19:27:18 60° WNW 19:31:19 10° NNW
Cosmos 2369 Rocket 3.8 19:22:49 10° N 19:24:42 20° N 19:24:42 20° N
Intelsat 5-1 Rocket 4.4 19:28:04 10° SSW 19:29:46 15° S 19:29:46 15° S
NOSS 3-1 (A) 3.3 19:24:46 10° SSW 19:29:52 68° SSE 19:29:52 68° SSE
Meteor 2-20 Rocket 4.2 19:24:35 10° S 19:30:40 79° E 19:30:40 79° E
Tiangong 1 4.4 19:31:33 10° W 19:31:52 12° W 19:31:52 12° W
Lacrosse 4 Rocket 3.1 19:35:40 10° NW 19:38:14 30° WNW 19:38:14 30° WNW
Cosmos 1655 Rocket 4.5 19:44:14 10° SSW 19:50:31 59° W 19:54:27 24° N
Cosmos 1943 4.3 20:01:03 10° SW 20:05:43 40° W 20:05:43 40° W
NOSS 3-1 (C) 4.4 20:02:53 10° WSW 20:07:48 41° WNW 20:07:48 41° WNW
USA 215 3.8 20:15:37 54° W 20:15:37 54° W 20:20:57 10° NW
